Location: Meinert
(37.9441°N, 122.0275°W)
Time: 18:50:01
(UTC+00:00)

CZ-3 R/B - Pass Details

Date: 18 April 2024
Orbit: 493 x 10074 km, 28.3° (Epoch: 23 May)

Event Time Altitude Azimuth Distance (km) Brightness Sun altitude
Exits shadow 12:28:43 12° 239° (WSW) 8,258 5.6 -11.8°
Maximum altitude 12:48:34 44° 178° (S) 2,614 3.6 -8.2°
Drops below altitude 10° 12:55:30 10° 107° (ESE) 2,966 4.9 -6.9°
Sets 12:57:23 0° 99° (E) 3,540 5.6 -6.5°
